Weather History for Stillwater, OK

Change the Weather History Date:

Wednesday, October 3, 2012

  Actual Average Record
Temperature  
Mean Temperature 63 °F -  
Max Temperature 82 °F 75 °F 95 °F (2000)
Min Temperature 44 °F 51 °F 37 °F (2004)
Degree Days  
Heating Degree Days 2    
Growing Degree Days 13 (Base 50)    
Moisture  
Dew Point 45 °F    
Average Humidity 55    
Maximum Humidity 90    
Minimum Humidity 26    
Precipitation  
Precipitation 0.00 in - - ()
Sea Level Pressure  
Sea Level Pressure 29.92 in    
Wind  
Wind Speed 4 mph (South)    
Max Wind Speed 17 mph    
Max Gust Speed 22 mph    
Visibility 10 miles    
Events      
Averages and records for this station are not official NWS values.
T = Trace of Precipitation, MM = Missing Value Source: NWS Daily Summary

Daily Weather History Graph

Daily Weather History Graph

Search for Another Location

Airport:

Trip Planner

Search our weather history database for the weather conditions in past years. The results will help you decide how hot, cold, wet, or windy it might be!

Date:

Astronomy

Oct. 03, 2012 Rise Set
Actual Time 7:25 AM CDT 7:08 PM CDT
Civil Twilight 6:59 AM CDT 7:33 PM CDT
Nautical Twilight 6:30 AM CDT 8:03 PM CDT
Astronomical Twilight 6:00 AM CDT 8:33 PM CDT
Moon 9:08 PM CDT (10/3) 10:42 AM CDT (10/3)
Length of Visible Light 12h 34m
Length of Day
11h 42m
Waning Gibbous, 88% of the Moon is Illuminated
Oct 3
Waning Gibbous
Oct 8
Last Quarter
Oct 15
New
Oct 21
First Quarter
Oct 29
Full

Hourly Weather History & Observations

Time (CDT) Temp. Dew Point Humidity Pressure Visibility Wind Dir Wind Speed Gust Speed Precip Events Conditions
12:53 AM 53.1 °F 43.0 °F 69% 29.91 in 10.0 mi Calm Calm - N/A   Clear
1:53 AM 46.9 °F 43.0 °F 86% 29.92 in 10.0 mi Calm Calm - N/A   Clear
2:53 AM 46.9 °F 43.0 °F 86% 29.92 in 10.0 mi Calm Calm - N/A   Clear
3:53 AM 46.9 °F 43.0 °F 86% 29.92 in 10.0 mi Calm Calm - N/A   Clear
4:53 AM 45.0 °F 42.1 °F 90% 29.92 in 10.0 mi Calm Calm - N/A   Clear
5:53 AM 45.0 °F 42.1 °F 90% 29.94 in 10.0 mi Calm Calm - N/A   Clear
6:53 AM 44.1 °F 41.0 °F 89% 29.95 in 10.0 mi Calm Calm - N/A   Clear
7:53 AM 48.0 °F 43.0 °F 83% 29.95 in 10.0 mi Calm Calm - N/A   Clear
8:53 AM 57.0 °F 46.9 °F 69% 29.96 in 10.0 mi SE 3.5 mph - N/A   Clear
9:53 AM 66.0 °F 46.9 °F 50% 29.96 in 10.0 mi South 4.6 mph - N/A   Clear
10:53 AM 75.0 °F 45.0 °F 34% 29.96 in 10.0 mi SSW 9.2 mph - N/A   Clear
11:53 AM 78.1 °F 43.0 °F 29% 29.95 in 10.0 mi SSW 9.2 mph - N/A   Clear
12:53 PM 80.1 °F 42.1 °F 26% 29.92 in 10.0 mi South 12.7 mph - N/A   Clear
1:53 PM 81.0 °F 43.0 °F 26% 29.90 in 10.0 mi SSW 11.5 mph 18.4 mph N/A   Clear
2:53 PM 82.0 °F 44.1 °F 26% 29.88 in 10.0 mi South 13.8 mph 19.6 mph N/A   Clear
3:53 PM 82.9 °F 45.0 °F 26% 29.87 in 10.0 mi South 13.8 mph - N/A   Clear
4:53 PM 82.0 °F 48.0 °F 30% 29.87 in 10.0 mi South 17.3 mph 21.9 mph N/A   Clear
5:53 PM 81.0 °F 48.0 °F 31% 29.87 in 10.0 mi South 13.8 mph - N/A   Clear
6:53 PM 77.0 °F 48.9 °F 37% 29.88 in 10.0 mi South 10.4 mph - N/A   Clear
8:53 PM 72.0 °F 48.9 °F 44% 29.92 in 10.0 mi SSE 9.2 mph - N/A   Clear
9:53 PM 69.1 °F 50.0 °F 51% 29.93 in 10.0 mi South 8.1 mph - N/A   Clear
10:53 PM 66.0 °F 50.0 °F 56% 29.94 in 10.0 mi South 8.1 mph - N/A   Clear
11:53 PM 64.9 °F 50.0 °F 58% 29.94 in 10.0 mi South 10.4 mph - N/A   Clear